LROP Weather Reports


time (UTC)temp
F
wind
direction
speed
knots
gust
knots
rain 1hr
in
rain 24hr
in
rain mn
in
humidity
%
barometer
mb
20260508040302 55 80 2.6 0.0 0.00 0.00 0.00 88 1015.0
20260508034802 55 70 2.6 0.0 0.00 0.00 0.00 88 1015.0
20260508033302 55 70 2.6 0.0 0.00 0.00 0.00 88 1015.0
20260508031802 55 100 4.3 0.0 0.00 0.00 0.00 88 1015.0
20260508030302 55 100 4.3 0.0 0.00 0.00 0.00 88 1015.0
20260508024802 55 70 1.7 0.0 0.00 0.00 0.00 94 1015.0
20260508023302 55 70 1.7 0.0 0.00 0.00 0.00 94 1015.0
20260508021802 55 90 4.3 0.0 0.00 0.00 0.00 88 1015.0
20260508020302 55 90 4.3 0.0 0.00 0.00 0.00 88 1015.0
20260508014802 55 60 2.6 0.0 0.00 0.00 0.00 88 1015.0
20260508013302 55 60 2.6 0.0 0.00 0.00 0.00 88 1015.0
20260508011802 55 60 4.3 0.0 0.00 0.00 0.00 88 1015.0
20260508010302 55 60 4.3 0.0 0.00 0.00 0.00 88 1015.0
20260508004802 57 60 5.2 0.0 0.00 0.00 0.00 88 1015.0
20260508003302 57 60 5.2 0.0 0.00 0.00 0.00 88 1015.0
20260508001801 57 40 6.1 0.0 0.00 0.00 0.00 88 1015.0
20260508000304 57 40 6.1 0.0 0.00 0.00 0.00 88 1015.0
20260507234803 59 40 7.0 0.0 0.00 0.00 0.00 82 1015.0
20260507233302 59 40 7.0 0.0 0.00 0.00 0.00 82 1015.0
20260507231802 59 60 4.3 0.0 0.00 0.00 0.00 82 1015.0
20260507230302 59 60 4.3 0.0 0.00 0.00 0.00 82 1015.0
20260507224802 61 60 4.3 0.0 0.00 0.00 0.00 83 1015.0
20260507223416 61 60 4.3 0.0 0.00 0.00 0.00 83
20260507221802 63 20 6.1 0.0 0.00 0.00 0.00 77 1015.0
20260507220301 63 20 6.1 0.0 0.00 0.00 0.00 77 1015.0
20260507214802 63 310 4.3 0.0 0.00 0.00 0.00 83 1015.0
20260507213303 63 310 4.3 0.0 0.00 0.00 0.00 83 1015.0
20260507211802 63 0.9 0.0 0.00 0.00 0.00 83 1015.0
20260507210302 63 0.9 0.0 0.00 0.00 0.00 83 1015.0
20260507204802 63 110 2.6 0.0 0.00 0.00 0.00 83 1015.0
20260507203302 63 110 2.6 0.0 0.00 0.00 0.00 83 1015.0
20260507201802 64 90 2.6 0.0 0.00 0.00 0.00 78 1015.0
20260507200302 64 90 2.6 0.0 0.00 0.00 0.00 78 1015.0
20260507194808 64 0 0.0 0.0 0.00 0.00 0.00 73 1015.0
20260507193302 64 0 0.0 0.0 0.00 0.00 0.00 73 1015.0
20260507191802 64 80 5.2 0.0 0.00 0.00 0.00 78 1015.0
20260507190303 64 80 5.2 0.0 0.00 0.00 0.00 78 1015.0
20260507184804 64 100 5.2 0.0 0.00 0.00 0.00 78 1015.0
20260507183302 64 100 5.2 0.0 0.00 0.00 0.00 78 1015.0
20260507181802 68 80 7.8 0.0 0.00 0.00 0.00 64 1014.0
20260507180302 68 80 7.8 0.0 0.00 0.00 0.00 64 1014.0
20260507174801 68 100 4.3 0.0 0.00 0.00 0.00 56 1014.0
20260507173302 68 100 4.3 0.0 0.00 0.00 0.00 56 1014.0
20260507171803 70 100 4.3 0.0 0.00 0.00 0.00 57 1014.0
20260507170302 70 100 4.3 0.0 0.00 0.00 0.00 57 1014.0
20260507164802 73 80 4.3 0.0 0.00 0.00 0.00 47 1014.0
20260507163302 73 80 4.3 0.0 0.00 0.00 0.00 47 1014.0
20260507161802 73 80 5.2 0.0 0.00 0.00 0.00 53 1014.0
20260507160302 73 80 5.2 0.0 0.00 0.00 0.00 53 1014.0
20260507154802 75 90 7.0 0.0 0.00 0.00 0.00 44 1014.0
20260507153303 75 90 7.0 0.0 0.00 0.00 0.00 44 1014.0
20260507151802 75 80 8.7 0.0 0.00 0.00 0.00 41 1014.0
20260507150301 75 80 8.7 0.0 0.00 0.00 0.00 41 1014.0
20260507144802 75 80 9.6 0.0 0.00 0.00 0.00 41 1014.0
20260507143304 75 80 9.6 0.0 0.00 0.00 0.00 41 1014.0
20260507141802 75 110 6.1 0.0 0.00 0.00 0.00 39 1014.0
20260507140302 75 110 6.1 0.0 0.00 0.00 0.00 39 1014.0
20260507134802 79 110 7.0 0.0 0.00 0.00 0.00 34 1015.0
20260507133302 79 110 7.0 0.0 0.00 0.00 0.00 34 1015.0
20260507131802 77 110 6.1 0.0 0.00 0.00 0.00 34 1015.0
20260507130302 77 110 6.1 0.0 0.00 0.00 0.00 34 1015.0
20260507124802 77 100 7.0 0.0 0.00 0.00 0.00 34 1015.0
20260507123340 77 100 7.0 0.0 0.00 0.00 0.00 34 1015.0
20260507121802 77 90 7.8 0.0 0.00 0.00 0.00 36 1015.0
20260507120302 77 90 7.8 0.0 0.00 0.00 0.00 36 1015.0
20260507114802 77 110 7.0 0.0 0.00 0.00 0.00 36 1015.0
20260507113315 75 80 7.8 0.0 0.00 0.00 0.00 36 1016.0
20260507111802 75 80 7.8 0.0 0.00 0.00 0.00 36 1016.0
20260507110302 75 80 7.8 0.0 0.00 0.00 0.00 36 1016.0
20260507104801 75 70 7.0 0.0 0.00 0.00 0.00 39 1016.0
20260507103302 75 70 7.0 0.0 0.00 0.00 0.00 39 1016.0
20260507101801 73 70 7.0 0.0 0.00 0.00 0.00 44 1016.0
20260507100302 73 70 7.0 0.0 0.00 0.00 0.00 44 1016.0
20260507094802 72 80 6.1 0.0 0.00 0.00 0.00 38 1016.0
20260507093302 72 80 6.1 0.0 0.00 0.00 0.00 38 1016.0
20260507091803 70 80 6.1 0.0 0.00 0.00 0.00 46 1016.0
20260507090302 70 80 6.1 0.0 0.00 0.00 0.00 46 1016.0
20260507084802 68 90 7.8 0.0 0.00 0.00 0.00 49 1016.0
20260507083302 68 90 7.8 0.0 0.00 0.00 0.00 49 1016.0
20260507081802 66 90 7.8 0.0 0.00 0.00 0.00 52 1016.0
20260507080303 66 90 7.8 0.0 0.00 0.00 0.00 52 1016.0
20260507074802 64 90 6.1 0.0 0.00 0.00 0.00 56 1016.0
20260507073302 64 90 6.1 0.0 0.00 0.00 0.00 56 1016.0
20260507071802 63 90 6.1 0.0 0.00 0.00 0.00 64 1016.0
20260507070302 63 90 6.1 0.0 0.00 0.00 0.00 64 1016.0
20260507064802 59 90 6.1 0.0 0.00 0.00 0.00 68 1016.0
20260507063302 59 90 6.1 0.0 0.00 0.00 0.00 68 1016.0
20260507061814 57 80 6.1 0.0 0.00 0.00 0.00 72 1016.0
20260507060302 57 80 6.1 0.0 0.00 0.00 0.00 72 1016.0
20260507054802 54 70 6.1 0.0 0.00 0.00 0.00 82 1016.0
20260507053309 54 70 6.1 0.0 0.00 0.00 0.00 82 1016.0
20260507051802 52 70 7.0 0.0 0.00 0.00 0.00 82 1016.0
20260507050302 52 70 7.0 0.0 0.00 0.00 0.00 82 1016.0
20260507044802 50 60 6.1 0.0 0.00 0.00 0.00 88 1016.0
20260507043302 50 60 6.1 0.0 0.00 0.00 0.00 88 1016.0
20260507041802 50 40 5.2 0.0 0.00 0.00 0.00 88 1016.0